When you browse on this site, cookies collect data to enhance your experience and personalize the content and advertising you see.
Visit our Privacy Policy to learn more. By continuing to use the site, you agree to this use of cookies and data.
  • In Hungary
  • List of Countries
  • For 7 days
  • Water Temperature
  • Weather Map
  • News
  • Weather Widgets
  • user-avatar
    Login

    Hourly Weather Bialy Dunajec

    Today, 10 December, Tuesday

    Time Temperature Precipitation Wind Pressure Humidity
    00:00 +1°C° 0 mm 1 mps 692 mmHg 91%
    01:00 +2°C° 0 mm 1 mps 692 mmHg 91%
    02:00 +2°C° 0 mm 1 mps 693 mmHg 91%
    03:00 +2°C° 0 mm 1 mps 693 mmHg 92%
    04:00 +2°C° 0 mm 1 mps 693 mmHg 93%
    05:00 +2°C° 0 mm 1 mps 694 mmHg 93%
    06:00 +2°C° 0 mm 1 mps 694 mmHg 94%
    07:00 +2°C° 0 mm 1 mps 695 mmHg 95%
    08:00 +2°C° 0.4 mm 1 mps 696 mmHg 96%
    09:00 +1°C° 0.4 mm 2 mps 696 mmHg 96%
    10:00 +1°C° 0.4 mm 2 mps 697 mmHg 97%
    11:00 +1°C° 0.2 mm 2 mps 697 mmHg 94%
    12:00 0°C° 0.2 mm 3 mps 698 mmHg 91%
    13:00 0°C° 0 mm 3 mps 699 mmHg 87%
    14:00 -1°C° 0.1 mm 3 mps 699 mmHg 88%
    15:00 -2°C° 0.1 mm 2 mps 699 mmHg 89%
    16:00 -3°C° 0.1 mm 2 mps 699 mmHg 90%
    17:00 -4°C° 0 mm 2 mps 699 mmHg 91%
    18:00 -4°C° 0 mm 2 mps 700 mmHg 92%
    19:00 -4°C° 0 mm 2 mps 701 mmHg 93%
    20:00 -4°C° 0.1 mm 2 mps 701 mmHg 93%
    21:00 -4°C° 0.1 mm 2 mps 701 mmHg 93%
    22:00 -4°C° 0.1 mm 2 mps 701 mmHg 93%
    23:00 -2°C° 0 mm 1 mps 701 mmHg 93%

    Tomorrow, 11 December, Wednesday

    Time Temperature Precipitation Wind Pressure Humidity
    00:00 -3°C° 0 mm 1 mps 701 mmHg 94%
    01:00 -3°C° 0 mm 1 mps 701 mmHg 94%
    02:00 -4°C° 0 mm 1 mps 700 mmHg 92%
    03:00 -4°C° 0 mm 1 mps 700 mmHg 91%
    04:00 -6°C° 0 mm 0 mps 699 mmHg 89%
    05:00 -6°C° 0 mm 0 mps 699 mmHg 86%
    06:00 -6°C° 0 mm 0 mps 699 mmHg 83%
    07:00 -6°C° 0 mm 0 mps 699 mmHg 81%
    08:00 -5°C° 0 mm 0 mps 699 mmHg 75%
    09:00 -2°C° 0 mm 1 mps 698 mmHg 69%
    10:00 -1°C° 0 mm 1 mps 698 mmHg 63%
    11:00 0°C° 0 mm 1 mps 698 mmHg 61%
    12:00 0°C° 0 mm 1 mps 697 mmHg 58%
    13:00 +1°C° 0 mm 1 mps 697 mmHg 55%
    14:00 0°C° 0 mm 1 mps 696 mmHg 61%
    15:00 -1°C° 0 mm 1 mps 695 mmHg 67%
    16:00 -3°C° 0 mm 1 mps 695 mmHg 72%
    17:00 -3°C° 0 mm 1 mps 694 mmHg 72%
    18:00 -3°C° 0 mm 1 mps 694 mmHg 72%
    19:00 -3°C° 0 mm 1 mps 694 mmHg 72%
    20:00 -3°C° 0 mm 1 mps 694 mmHg 72%
    21:00 -5°C° 0 mm 2 mps 693 mmHg 72%
    22:00 -5°C° 0 mm 2 mps 693 mmHg 73%
    23:00 -5°C° 0 mm 2 mps 692 mmHg 73%

    Day after tomorrow, 12 December, Thursday

    Time Temperature Precipitation Wind Pressure Humidity
    00:00 -5°C° 0 mm 2 mps 692 mmHg 73%
    01:00 -5°C° 0 mm 2 mps 692 mmHg 73%
    02:00 -5°C° 0 mm 2 mps 692 mmHg 75%
    03:00 -4°C° 0 mm 2 mps 691 mmHg 78%
    04:00 -4°C° 0 mm 2 mps 691 mmHg 81%
    05:00 -4°C° 0 mm 2 mps 691 mmHg 84%
    06:00 -4°C° 0 mm 2 mps 691 mmHg 86%
    07:00 -3°C° 0 mm 2 mps 691 mmHg 88%
    08:00 -1°C° 0.1 mm 1 mps 691 mmHg 88%
    09:00 0°C° 0.1 mm 1 mps 691 mmHg 87%
    10:00 +1°C° 0.1 mm 1 mps 691 mmHg 87%
    11:00 +2°C° 0.1 mm 1 mps 690 mmHg 87%
    12:00 +2°C° 0.1 mm 1 mps 690 mmHg 87%
    13:00 +3°C° 0.1 mm 1 mps 690 mmHg 87%
    14:00 +2°C° 0.2 mm 1 mps 690 mmHg 90%
    15:00 +1°C° 0.2 mm 1 mps 689 mmHg 93%
    16:00 +1°C° 0.2 mm 1 mps 688 mmHg 96%
    17:00 +1°C° 0.2 mm 1 mps 688 mmHg 96%
    18:00 +1°C° 0.2 mm 1 mps 688 mmHg 96%
    19:00 +1°C° 0.2 mm 1 mps 688 mmHg 96%
    20:00 +1°C° 0.4 mm 1 mps 688 mmHg 97%
    21:00 +1°C° 0.4 mm 1 mps 687 mmHg 97%
    22:00 +1°C° 0.4 mm 1 mps 687 mmHg 97%
    23:00 +1°C° 0.1 mm 1 mps 687 mmHg 97%

    13 December, Friday

    Time Temperature Precipitation Wind Pressure Humidity
    00:00 0°C° 0.1 mm 1 mps 686 mmHg 97%
    01:00 0°C° 0.1 mm 1 mps 686 mmHg 96%
    02:00 -2°C° 0 mm 2 mps 685 mmHg 96%
    03:00 -2°C° 0 mm 2 mps 685 mmHg 95%
    04:00 -3°C° 0 mm 2 mps 684 mmHg 94%
    05:00 -3°C° 0 mm 2 mps 684 mmHg 94%
    06:00 -3°C° 0 mm 2 mps 683 mmHg 93%
    07:00 -3°C° 0 mm 2 mps 683 mmHg 92%
    08:00 -4°C° 0.1 mm 3 mps 683 mmHg 88%
    09:00 -2°C° 0.1 mm 3 mps 682 mmHg 84%
    10:00 -2°C° 0.1 mm 4 mps 682 mmHg 80%
    11:00 -2°C° 0.1 mm 4 mps 682 mmHg 80%
    12:00 -1°C° 0.1 mm 4 mps 681 mmHg 79%
    13:00 -1°C° 0.1 mm 4 mps 681 mmHg 79%
    14:00 -1°C° 0 mm 4 mps 680 mmHg 81%
    15:00 -1°C° 0 mm 3 mps 680 mmHg 84%
    16:00 -2°C° 0 mm 3 mps 680 mmHg 86%
    17:00 -2°C° 0.1 mm 2 mps 680 mmHg 87%
    18:00 -2°C° 0.1 mm 2 mps 681 mmHg 89%
    19:00 -2°C° 0.1 mm 2 mps 681 mmHg 90%
    20:00 -2°C° 0.1 mm 2 mps 681 mmHg 91%
    21:00 -2°C° 0.1 mm 2 mps 681 mmHg 92%
    22:00 -2°C° 0.1 mm 2 mps 682 mmHg 93%
    23:00 -2°C° 0.1 mm 2 mps 682 mmHg 93%

    14 December, Saturday

    Time Temperature Precipitation Wind Pressure Humidity
    00:00 -2°C° 0.1 mm 2 mps 682 mmHg 93%
    01:00 -2°C° 0.1 mm 2 mps 682 mmHg 93%
    02:00 0°C° 0.1 mm 1 mps 683 mmHg 94%
    03:00 0°C° 0.1 mm 1 mps 683 mmHg 94%
    04:00 0°C° 0.1 mm 1 mps 683 mmHg 94%
    05:00 0°C° 0 mm 1 mps 684 mmHg 94%
    06:00 0°C° 0 mm 1 mps 684 mmHg 94%
    07:00 0°C° 0 mm 1 mps 684 mmHg 94%
    08:00 +1°C° 0 mm 1 mps 685 mmHg 92%
    09:00 +1°C° 0 mm 2 mps 686 mmHg 90%
    10:00 +1°C° 0 mm 2 mps 686 mmHg 88%
    11:00 +2°C° 0 mm 2 mps 686 mmHg 85%
    12:00 +1°C° 0 mm 3 mps 686 mmHg 83%
    13:00 +1°C° 0 mm 3 mps 686 mmHg 80%
    14:00 +1°C° 0 mm 3 mps 686 mmHg 83%
    15:00 0°C° 0 mm 3 mps 687 mmHg 85%
    16:00 -1°C° 0 mm 3 mps 687 mmHg 88%
    17:00 -1°C° 0 mm 3 mps 688 mmHg 88%
    18:00 -1°C° 0 mm 3 mps 688 mmHg 88%
    19:00 -2°C° 0 mm 4 mps 689 mmHg 88%
    20:00 -1°C° 0.1 mm 3 mps 689 mmHg 89%
    21:00 -1°C° 0.1 mm 3 mps 690 mmHg 90%
    22:00 0°C° 0.1 mm 3 mps 690 mmHg 92%
    23:00 0°C° 0.5 mm 3 mps 691 mmHg 91%

    15 December, Sunday

    Time Temperature Precipitation Wind Pressure Humidity
    00:00 +1°C° 0.5 mm 3 mps 691 mmHg 91%
    01:00 +1°C° 0.5 mm 3 mps 692 mmHg 91%
    02:00 +1°C° 0.3 mm 3 mps 692 mmHg 92%
    03:00 +1°C° 0.3 mm 3 mps 693 mmHg 93%
    04:00 +1°C° 0.3 mm 3 mps 693 mmHg 94%
    05:00 +1°C° 0.1 mm 3 mps 693 mmHg 94%
    06:00 +1°C° 0.1 mm 3 mps 694 mmHg 94%
    07:00 +2°C° 0.1 mm 2 mps 694 mmHg 94%
    08:00 +3°C° 0.1 mm 2 mps 694 mmHg 93%
    09:00 +3°C° 0.1 mm 2 mps 694 mmHg 93%
    10:00 +3°C° 0.1 mm 2 mps 694 mmHg 92%
    11:00 +3°C° 0 mm 2 mps 694 mmHg 90%
    12:00 +4°C° 0 mm 2 mps 694 mmHg 87%
    13:00 +4°C° 0 mm 2 mps 693 mmHg 85%
    14:00 +3°C° 0 mm 2 mps 694 mmHg 86%
    15:00 +2°C° 0 mm 2 mps 694 mmHg 87%
    16:00 +1°C° 0 mm 3 mps 694 mmHg 88%
    17:00 +1°C° 0 mm 3 mps 694 mmHg 88%
    18:00 +1°C° 0 mm 3 mps 695 mmHg 88%
    19:00 +1°C° 0 mm 3 mps 696 mmHg 87%
    20:00 +2°C° 0 mm 2 mps 696 mmHg 88%
    21:00 +2°C° 0 mm 2 mps 697 mmHg 88%
    22:00 +3°C° 0 mm 2 mps 698 mmHg 89%
    23:00 +3°C° 0 mm 2 mps 698 mmHg 90%
    Show more